period_start,C,m1,H,J0,J1,J2,J3,J4,J5,JA,JB,JC,JD,JJ,JK,JN,#
2018-07-17 00:02:39,-0.01,0.01,0.00,26.21,30.40,33.39,13.73,47.07,1015.64,2013.99,3410.99,3066.36,3531.50,599.75,588.80,1.80,0000 0000 0000 0000 000000
2018-07-17 00:07:40,-0.01,0.01,0.00,26.19,30.38,33.37,13.77,47.17,1015.64,2013.99,3410.99,3066.74,3531.65,599.91,589.15,1.85,0000 0000 0000 0000 000000
2018-07-17 00:12:41,-0.00,0.01,0.00,26.17,30.36,33.37,13.83,47.08,1015.64,2013.99,3411.00,3066.93,3531.96,600.23,589.34,1.90,0000 0000 0000 0000 000000
2018-07-17 00:17:43,0.00,0.01,0.00,26.16,30.34,33.31,13.82,47.17,1015.65,2013.99,3411.02,3066.98,3531.98,600.16,589.32,1.95,0000 0000 0000 0000 000000
2018-07-17 00:22:44,0.00,0.01,0.00,26.15,30.31,33.30,13.86,47.21,1015.65,2014.00,3411.04,3066.99,3531.99,599.92,589.13,2.00,0000 0000 0000 0000 000000
2018-07-17 00:27:45,-0.00,0.01,0.00,26.12,30.29,33.27,13.76,47.03,1015.70,2014.02,3411.46,3067.00,3531.99,600.16,589.36,2.05,0000 0000 0000 0000 000000
2018-07-17 00:32:46,0.00,0.01,0.00,26.11,30.27,33.25,13.77,47.08,1015.87,2014.11,3411.85,3067.02,3532.00,599.91,589.47,2.10,0000 0000 0000 0000 000000
2018-07-17 00:37:48,0.02,0.01,0.00,26.08,30.25,33.22,13.88,47.23,1015.97,2014.42,3411.97,3067.25,3532.08,599.84,589.49,2.15,0000 0000 0000 0000 000000
2018-07-17 00:42:49,0.02,0.02,0.00,26.06,30.23,33.21,13.91,47.27,1016.08,2014.72,3411.98,3067.52,3532.31,600.03,589.60,2.20,0000 0000 0000 0000 000000
2018-07-17 00:47:50,0.00,0.02,0.00,26.05,30.21,33.20,13.83,47.28,1016.12,2014.91,3411.98,3067.82,3532.63,600.10,589.79,2.25,0000 0000 0000 0000 000000
2018-07-17 00:52:52,-0.00,0.02,0.00,26.03,30.19,33.18,13.84,47.31,1016.13,2014.98,3411.99,3067.97,3532.95,599.91,589.67,2.30,0000 0000 0000 0000 000000
2018-07-17 00:57:53,0.00,0.02,0.00,26.01,30.17,33.16,13.82,47.22,1016.13,2014.99,3412.00,3067.99,3532.99,600.36,590.09,2.35,0000 0000 0000 0000 000000
2018-07-17 01:02:54,0.00,0.02,0.00,26.00,30.15,33.14,13.88,47.36,1016.13,2014.99,3412.00,3067.99,3532.99,600.47,590.26,2.40,0000 0000 0000 0000 000000
2018-07-17 01:07:55,0.00,0.02,0.00,25.97,30.12,33.13,13.86,47.33,1016.14,2015.00,3412.02,3067.99,3532.99,600.25,589.97,2.45,0000 0000 0000 0000 000000
2018-07-17 01:12:57,0.00,0.02,0.00,25.95,30.11,33.11,13.82,47.28,1016.22,2015.03,3412.09,3068.01,3533.00,600.00,589.85,2.50,0000 0000 0000 0000 000000
2018-07-17 01:17:58,-0.00,0.02,0.00,25.94,30.08,33.09,13.84,47.24,1016.21,2015.02,3412.10,3068.03,3533.01,600.04,589.99,2.55,0000 0000 0000 0000 000000
2018-07-17 01:22:59,-0.01,0.02,0.00,25.92,30.06,33.06,13.82,47.24,1016.25,2015.11,3412.42,3068.12,3533.13,600.10,589.99,2.60,0000 0000 0000 0000 000000
2018-07-17 01:28:00,0.02,0.02,0.00,25.90,30.05,33.05,13.80,47.26,1016.32,2015.48,3412.76,3068.52,3533.52,600.50,590.63,2.65,0000 0000 0000 0000 000000
2018-07-17 01:33:01,0.02,0.02,0.00,25.88,30.02,33.00,13.84,47.34,1016.44,2015.84,3412.95,3068.85,3533.80,600.18,590.33,2.70,0000 0000 0000 0000 000000
2018-07-17 01:38:02,0.00,0.02,0.00,25.87,30.00,32.97,13.73,47.29,1016.55,2015.95,3412.98,3068.96,3533.95,599.57,589.83,2.75,0000 0000 0000 0000 000000
2018-07-17 01:43:03,0.00,0.02,0.00,25.84,29.98,32.98,13.84,47.26,1016.58,2015.98,3412.99,3068.99,3533.97,600.29,590.66,2.80,0000 0000 0000 0000 000000
2018-07-17 01:48:05,0.00,0.02,0.00,25.82,29.96,32.95,13.84,47.36,1016.61,2015.98,3412.99,3068.99,3533.99,599.80,590.16,2.85,0000 0000 0000 0000 000000
2018-07-17 01:53:06,0.00,0.02,0.00,25.81,29.94,32.92,13.84,47.36,1016.62,2015.99,3413.01,3069.00,3534.00,600.24,590.49,2.90,0000 0000 0000 0000 000000
2018-07-17 01:58:07,0.00,0.02,0.00,25.80,29.92,32.87,13.86,47.52,1016.64,2015.99,3413.01,3069.03,3534.04,600.21,590.63,2.95,0000 0000 0000 0000 000000
2018-07-17 02:03:08,-0.00,0.02,0.00,25.79,29.90,32.89,13.80,47.35,1016.65,2016.01,3413.00,3069.06,3534.18,599.74,590.32,3.00,0000 0000 0000 0000 000000
2018-07-17 02:08:09,0.01,0.02,0.00,25.77,29.88,32.86,13.85,47.42,1016.66,2016.17,3413.00,3069.24,3534.43,599.78,590.37,3.05,0000 0000 0000 0000 000000
2018-07-17 02:13:10,-0.01,0.02,0.00,25.75,29.86,32.86,13.82,47.23,1016.67,2016.32,3413.04,3069.73,3534.83,599.66,590.33,3.10,0000 0000 0000 0000 000000
2018-07-17 02:18:12,0.03,0.02,0.00,25.74,29.84,32.86,13.87,47.31,1016.70,2016.72,3413.20,3069.98,3534.98,600.13,590.75,3.15,0000 0000 0000 0000 000000
2018-07-17 02:23:13,0.00,0.02,0.00,25.72,29.82,32.80,13.76,47.33,1016.74,2016.92,3413.48,3069.98,3534.99,599.63,590.37,3.20,0000 0000 0000 0000 000000
2018-07-17 02:28:14,0.00,0.02,0.00,25.72,29.80,32.77,13.88,47.34,1017.04,2016.96,3413.79,3069.99,3534.99,600.34,591.15,3.25,0000 0000 0000 0000 000000
2018-07-17 02:33:15,-0.00,0.02,0.00,25.72,29.78,32.77,13.84,47.40,1017.10,2016.97,3413.91,3069.99,3534.99,600.15,591.15,3.30,0000 0000 0000 0000 000000
2018-07-17 02:38:17,0.00,0.02,0.00,25.70,29.77,32.74,13.84,47.17,1017.10,2016.99,3413.68,3069.99,3535.00,600.12,591.02,3.35,0000 0000 0000 0000 000000
2018-07-17 02:43:18,0.00,0.02,0.00,25.68,29.75,32.74,13.83,47.47,1017.11,2016.99,3413.41,3069.99,3535.00,599.69,590.70,3.40,0000 0000 0000 0000 000000
2018-07-17 02:48:19,-0.00,0.02,0.00,25.67,29.74,32.69,13.86,47.52,1017.12,2016.99,3413.33,3069.99,3535.00,599.99,590.98,3.45,0000 0000 0000 0000 000000
2018-07-17 02:53:20,-0.00,0.02,0.00,25.66,29.72,32.68,13.92,47.67,1017.12,2017.00,3413.60,3070.00,3535.00,600.04,591.07,3.50,0000 0000 0000 0000 000000
2018-07-17 02:58:22,0.00,0.02,0.00,25.65,29.70,32.67,13.85,47.27,1017.34,2017.03,3413.82,3070.04,3535.00,600.03,591.20,3.55,0000 0000 0000 0000 000000
2018-07-17 03:03:23,0.01,0.02,0.00,25.63,29.68,32.65,13.79,47.28,1017.58,2017.06,3413.09,3070.00,3534.85,599.56,590.83,3.60,0000 0000 0000 0000 000000
2018-07-17 03:08:24,0.01,0.02,0.00,25.61,29.66,32.63,13.89,47.44,1017.59,2017.14,3413.00,3069.99,3534.28,600.02,591.43,3.65,0000 0000 0000 0000 000000
2018-07-17 03:13:25,-0.01,0.02,0.00,25.61,29.65,32.61,13.85,47.36,1017.59,2017.08,3412.99,3069.99,3534.14,599.97,591.35,3.70,0000 0000 0000 0000 000000
2018-07-17 03:18:27,0.01,0.02,0.00,25.60,29.62,32.58,13.88,47.37,1017.61,2017.29,3413.01,3069.99,3534.49,599.99,591.42,3.75,0000 0000 0000 0000 000000
2018-07-17 03:23:28,0.04,0.02,0.00,25.60,29.61,32.56,13.85,47.38,1017.73,2017.65,3413.00,3069.99,3534.33,599.99,591.62,3.80,0000 0000 0000 0000 000000
2018-07-17 03:28:29,0.02,0.02,0.00,25.59,29.60,32.56,13.89,47.33,1018.04,2017.89,3412.97,3069.99,3534.04,599.90,591.57,3.85,0000 0000 0000 0000 000000
2018-07-17 03:33:30,0.03,0.03,0.00,25.57,29.58,32.55,13.85,47.31,1018.08,2017.93,3412.32,3069.66,3533.90,599.85,591.60,3.90,0000 0000 0000 0000 000000
2018-07-17 03:38:31,0.02,0.03,0.00,25.55,29.56,32.52,13.87,47.33,1018.08,2017.97,3412.00,3069.04,3533.21,599.95,591.78,3.96,0000 0000 0000 0000 000000
2018-07-17 03:43:32,0.00,0.03,0.00,25.54,29.55,32.51,13.87,47.28,1018.08,2017.97,3412.00,3069.05,3533.09,600.52,592.36,4.01,0000 0000 0000 0000 000000
2018-07-17 03:48:34,-0.00,0.03,0.00,25.53,29.53,32.51,13.86,47.27,1018.08,2017.99,3411.99,3069.19,3533.18,600.18,592.08,4.06,0000 0000 0000 0000 000000
2018-07-17 03:53:35,-0.01,0.03,0.00,25.52,29.52,32.50,13.79,47.41,1018.08,2017.99,3411.99,3069.58,3533.18,599.13,591.03,4.11,0000 0000 0000 0000 000000
2018-07-17 03:58:37,-0.01,0.03,0.00,25.51,29.50,32.47,13.84,47.47,1018.09,2017.99,3411.99,3069.86,3533.18,599.79,591.75,4.16,0000 0000 0000 0000 000000
2018-07-17 04:03:38,-0.00,0.03,0.00,25.50,29.50,32.45,13.83,47.35,1018.12,2017.99,3411.99,3069.96,3533.13,599.90,591.76,4.21,0000 0000 0000 0000 000000
2018-07-17 04:08:39,0.00,0.03,0.00,25.48,29.47,32.44,13.84,47.42,1018.37,2017.99,3411.99,3069.94,3533.11,599.36,591.54,4.26,0000 0000 0000 0000 000000
2018-07-17 04:13:40,0.00,0.03,0.00,25.47,29.46,32.45,13.92,47.41,1018.49,2018.00,3411.99,3069.97,3533.18,599.89,592.08,4.31,0000 0000 0000 0000 000000
2018-07-17 04:18:41,0.00,0.03,0.00,25.47,29.45,32.42,13.88,47.58,1018.57,2018.00,3411.99,3069.98,3533.16,599.80,592.05,4.36,0000 0000 0000 0000 000000
2018-07-17 04:23:43,0.00,0.03,0.00,25.44,29.44,32.43,13.82,47.47,1018.57,2018.00,3411.98,3069.97,3533.05,599.42,591.81,4.41,0000 0000 0000 0000 000000
2018-07-17 04:28:44,0.00,0.03,0.00,25.43,29.42,32.41,13.88,47.33,1018.57,2018.00,3411.99,3069.98,3533.03,600.23,592.47,4.46,0000 0000 0000 0000 000000
2018-07-17 04:33:45,0.00,0.03,0.00,25.44,29.41,32.39,13.87,47.33,1018.57,2018.03,3411.98,3069.98,3533.02,600.24,592.46,4.51,0000 0000 0000 0000 000000
2018-07-17 04:38:47,0.00,0.03,0.00,25.42,29.40,32.37,13.94,47.68,1018.57,2018.02,3411.98,3069.98,3533.00,600.20,592.53,4.56,0000 0000 0000 0000 000000
2018-07-17 04:43:48,0.00,0.03,0.00,25.42,29.39,32.34,13.89,47.53,1018.57,2018.02,3411.99,3069.99,3533.00,600.05,592.39,4.61,0000 0000 0000 0000 000000
2018-07-17 04:48:49,0.00,0.03,0.00,25.42,29.37,32.31,13.85,47.43,1018.57,2018.04,3411.99,3069.99,3533.01,600.11,592.47,4.66,0000 0000 0000 0000 000000
2018-07-17 04:53:50,0.01,0.03,0.00,25.41,29.36,32.32,13.92,47.47,1018.58,2018.11,3411.99,3069.99,3533.00,600.13,592.49,4.71,0000 0000 0000 0000 000000
2018-07-17 04:58:52,-0.00,0.03,0.00,25.39,29.35,32.30,13.83,47.39,1018.58,2018.09,3411.98,3069.99,3533.00,599.41,591.84,4.76,0000 0000 0000 0000 000000
2018-07-17 05:03:53,0.01,0.03,0.00,25.37,29.34,32.28,13.86,47.51,1018.59,2018.12,3411.92,3069.99,3533.00,599.56,591.93,4.81,0000 0000 0000 0000 000000
2018-07-17 05:08:54,0.01,0.03,0.00,25.37,29.32,32.29,13.86,47.30,1018.64,2018.30,3411.93,3069.99,3533.00,599.81,592.22,4.86,0000 0000 0000 0000 000000
2018-07-17 05:13:55,0.17,0.03,0.00,25.35,29.32,32.27,13.86,47.40,1018.63,2018.68,3409.94,3068.83,3531.74,600.18,592.68,4.91,0000 0000 0000 0000 000000
2018-07-17 05:18:57,0.12,0.04,0.00,25.34,29.30,32.25,13.90,47.38,1018.84,2018.93,3407.07,3066.29,3529.12,600.23,592.90,4.96,0000 0000 0000 0000 000000
2018-07-17 05:23:58,-0.01,0.04,0.00,25.33,29.30,32.25,13.85,47.36,1019.02,2018.94,3406.98,3066.43,3529.00,599.51,592.32,5.01,0000 0000 0000 0000 000000
2018-07-17 05:28:59,0.02,0.04,0.00,25.32,29.28,32.25,13.87,47.60,1019.05,2018.96,3406.77,3066.33,3529.00,599.47,592.31,5.06,0000 0000 0000 0000 000000
2018-07-17 05:34:00,-0.02,0.04,0.00,25.32,29.27,32.25,13.89,47.33,1019.07,2018.99,3406.59,3066.53,3529.00,599.97,592.68,5.11,0000 0000 0000 0000 000000
2018-07-17 05:39:01,0.00,0.04,0.00,25.31,29.25,32.23,13.84,47.27,1019.14,2018.99,3406.71,3066.73,3529.00,599.58,592.40,5.16,0000 0000 0000 0000 000000
2018-07-17 05:44:03,-0.00,0.04,0.00,25.30,29.25,32.25,13.83,47.37,1019.16,2018.99,3406.87,3066.74,3529.00,600.09,592.95,5.21,0000 0000 0000 0000 000000
2018-07-17 05:49:04,-0.00,0.04,0.00,25.30,29.23,32.20,13.89,47.37,1019.21,2018.99,3406.94,3066.92,3529.00,599.92,592.86,5.26,0000 0000 0000 0000 000000
2018-07-17 05:54:05,0.00,0.04,0.00,25.29,29.22,32.19,13.92,47.46,1019.49,2018.99,3406.98,3066.97,3529.00,600.20,593.36,5.31,0000 0000 0000 0000 000000
2018-07-17 05:59:06,0.00,0.04,0.00,25.27,29.21,32.19,13.83,47.22,1019.55,2018.99,3406.98,3066.97,3529.00,599.98,593.26,5.36,0000 0000 0000 0000 000000
2018-07-17 06:04:07,0.00,0.04,0.00,25.27,29.20,32.15,13.88,47.45,1019.54,2018.98,3406.98,3066.97,3529.00,599.91,593.19,5.41,0000 0000 0000 0000 000000
2018-07-17 06:09:08,0.00,0.04,0.00,25.26,29.19,32.16,14.00,47.41,1019.56,2018.99,3406.97,3066.99,3529.01,600.32,593.54,5.46,0000 0000 0000 0000 000000
2018-07-17 06:14:10,0.00,0.04,0.00,25.24,29.17,32.16,13.96,47.35,1019.59,2018.99,3406.86,3066.99,3529.00,600.15,593.41,5.51,0000 0000 0000 0000 000000
2018-07-17 06:19:11,0.01,0.04,0.00,25.22,29.17,32.13,13.89,47.37,1019.81,2019.00,3406.26,3066.98,3529.00,599.96,593.40,5.56,0000 0000 0000 0000 000000
2018-07-17 06:24:12,0.00,0.04,0.00,25.20,29.15,32.15,13.85,47.27,1020.01,2019.00,3406.02,3066.98,3528.99,599.97,593.59,5.61,0000 0000 0000 0000 000000
2018-07-17 06:29:13,0.00,0.04,0.00,25.20,29.15,32.13,13.92,47.28,1020.02,2019.01,3406.03,3066.98,3528.99,600.17,593.94,5.66,0000 0000 0000 0000 000000
2018-07-17 06:34:14,0.00,0.04,0.00,25.20,29.13,32.10,13.92,47.46,1020.03,2019.05,3406.02,3066.98,3529.00,600.35,593.83,5.71,0000 0000 0000 0000 000000
2018-07-17 06:39:16,-0.00,0.04,0.00,25.19,29.12,32.12,13.87,47.27,1020.04,2019.06,3406.05,3066.98,3529.00,599.90,593.55,5.76,0000 0000 0000 0000 000000
2018-07-17 06:44:17,0.00,0.04,0.00,25.17,29.11,32.09,13.89,47.20,1020.14,2019.08,3406.17,3066.99,3529.00,600.34,594.12,5.81,0000 0000 0000 0000 000000
2018-07-17 06:49:18,0.01,0.04,0.00,25.17,29.10,32.09,13.93,47.36,1020.19,2019.16,3406.02,3066.99,3529.00,600.45,594.36,5.86,0000 0000 0000 0000 000000
2018-07-17 06:54:19,-0.02,0.04,0.00,25.15,29.09,32.07,13.91,47.41,1020.26,2019.09,3406.28,3066.99,3529.00,599.98,593.74,5.91,0000 0000 0000 0000 000000
2018-07-17 06:59:21,0.01,0.04,0.00,25.14,29.07,32.06,13.98,47.24,1020.19,2019.13,3406.48,3067.00,3529.00,600.64,594.40,5.96,0000 0000 0000 0000 000000
2018-07-17 07:04:22,0.05,0.05,0.00,25.13,29.06,32.02,13.88,47.27,1020.25,2019.62,3406.44,3067.01,3529.04,599.37,593.37,6.01,0000 0000 0000 0000 000000
2018-07-17 07:09:24,0.00,0.05,0.00,25.11,29.05,32.03,14.01,47.53,1020.22,2019.84,3406.73,3067.10,3529.08,600.18,594.05,6.06,0000 0000 0000 0000 000000
2018-07-17 07:14:25,0.01,0.05,0.00,25.10,29.04,32.02,13.88,47.34,1020.40,2019.96,3406.43,3067.16,3529.17,600.12,594.09,6.11,0000 0000 0000 0000 000000
2018-07-17 07:19:26,0.00,0.05,0.00,25.08,29.02,32.00,13.88,47.27,1020.47,2019.97,3406.62,3067.20,3529.10,600.19,594.39,6.16,0000 0000 0000 0000 000000
2018-07-17 07:24:27,-0.00,0.05,0.00,25.07,29.01,31.98,13.91,47.15,1020.50,2019.99,3406.52,3067.35,3529.08,600.11,594.37,6.21,0000 0000 0000 0000 000000
2018-07-17 07:29:29,-0.01,0.05,0.00,25.07,29.00,32.01,13.94,47.22,1020.49,2019.98,3406.91,3067.78,3529.08,600.36,594.50,6.26,0000 0000 0000 0000 000000
2018-07-17 07:34:30,-0.01,0.05,0.00,25.05,29.00,31.98,13.82,47.21,1020.51,2019.98,3406.95,3067.93,3529.26,599.67,593.75,6.31,0000 0000 0000 0000 000000
2018-07-17 07:39:31,-0.00,0.05,0.00,25.05,28.97,31.95,13.94,47.40,1020.52,2019.99,3406.95,3067.98,3529.37,600.10,594.33,6.37,0000 0000 0000 0000 000000
2018-07-17 07:44:33,0.00,0.05,0.00,25.04,28.97,31.94,13.97,47.28,1020.52,2019.99,3406.96,3067.98,3529.21,600.39,594.61,6.42,0000 0000 0000 0000 000000
2018-07-17 07:49:34,0.00,0.05,0.00,25.04,28.95,31.96,13.97,47.28,1020.52,2019.98,3406.95,3067.98,3529.05,600.15,594.39,6.47,0000 0000 0000 0000 000000
2018-07-17 07:54:35,0.00,0.05,0.00,25.03,28.95,31.95,13.93,47.26,1020.52,2019.99,3406.97,3067.98,3529.02,599.90,594.20,6.52,0000 0000 0000 0000 000000
2018-07-17 07:59:37,0.00,0.05,0.00,25.01,28.93,31.95,13.90,47.20,1020.52,2019.99,3406.98,3067.99,3529.01,600.20,594.49,6.57,0000 0000 0000 0000 000000
2018-07-17 08:04:38,0.00,0.05,0.00,25.00,28.92,31.91,13.98,47.48,1020.51,2019.98,3406.98,3067.99,3529.01,600.18,594.70,6.62,0000 0000 0000 0000 000000
2018-07-17 08:09:39,-0.00,0.05,0.00,24.97,28.92,31.91,13.94,47.23,1020.52,2019.98,3406.94,3067.99,3529.00,600.42,594.81,6.67,0000 0000 0000 0000 000000
2018-07-17 08:14:40,-0.00,0.05,0.00,24.95,28.90,31.92,13.89,47.35,1020.51,2019.99,3406.89,3067.99,3529.00,600.13,594.52,6.72,0000 0000 0000 0000 000000
2018-07-17 08:19:41,-0.00,0.05,0.00,24.95,28.90,31.89,13.97,47.33,1020.52,2019.99,3406.89,3067.99,3529.00,600.19,594.64,6.77,0000 0000 0000 0000 000000
2018-07-17 08:24:42,0.00,0.05,0.00,24.94,28.88,31.88,13.99,47.39,1020.52,2019.99,3406.86,3067.99,3529.00,600.18,594.55,6.82,0000 0000 0000 0000 000000
2018-07-17 08:29:44,0.00,0.05,0.00,24.92,28.87,31.85,13.97,47.28,1020.52,2019.99,3406.80,3067.99,3529.00,599.86,594.41,6.87,0000 0000 0000 0000 000000
2018-07-17 08:34:45,0.00,0.05,0.00,24.91,28.86,31.86,13.85,47.48,1020.52,2019.99,3406.60,3067.99,3529.00,599.42,593.98,6.92,0000 0000 0000 0000 000000
2018-07-17 08:39:46,0.00,0.05,0.00,24.89,28.85,31.85,14.01,47.38,1020.52,2019.99,3406.64,3067.99,3528.99,600.05,594.61,6.97,0000 0000 0000 0000 000000
2018-07-17 08:44:48,0.00,0.05,0.00,24.87,28.84,31.84,13.87,47.37,1020.52,2019.99,3406.73,3068.00,3528.99,599.75,594.42,7.02,0000 0000 0000 0000 000000
2018-07-17 08:49:49,0.01,0.05,0.00,24.87,28.82,31.81,13.90,47.40,1020.53,2020.01,3406.39,3068.01,3528.80,599.83,594.31,7.07,0000 0000 0000 0000 000000
2018-07-17 08:54:50,0.01,0.05,0.00,24.87,28.81,31.79,13.93,47.44,1020.54,2020.02,3406.01,3067.98,3528.31,599.93,594.52,7.12,0000 0000 0000 0000 000000
2018-07-17 08:59:52,0.00,0.05,0.00,24.85,28.80,31.80,13.84,47.37,1020.58,2020.02,3406.00,3067.98,3528.22,599.65,594.41,7.17,0000 0000 0000 0000 000000
2018-07-17 09:04:53,0.00,0.05,0.00,24.82,28.79,31.78,13.95,47.34,1020.60,2020.05,3406.00,3067.99,3528.19,600.02,594.71,7.22,0000 0000 0000 0000 000000
2018-07-17 09:09:54,0.01,0.05,0.00,24.82,28.77,31.78,13.97,47.35,1020.70,2020.11,3405.99,3067.99,3528.16,599.99,594.86,7.27,0000 0000 0000 0000 000000
2018-07-17 09:14:55,0.02,0.05,0.00,24.81,28.76,31.77,14.03,47.62,1020.83,2020.36,3405.99,3067.99,3528.28,600.23,595.09,7.32,0000 0000 0000 0000 000000
2018-07-17 09:19:57,0.02,0.05,0.00,24.79,28.75,31.74,13.90,47.33,1020.90,2020.80,3405.99,3067.99,3528.65,599.68,594.65,7.37,0000 0000 0000 0000 000000
2018-07-17 09:24:58,0.01,0.05,0.00,24.77,28.72,31.75,13.91,47.38,1020.85,2020.95,3405.99,3067.99,3528.78,599.71,594.78,7.42,0000 0000 0000 0000 000000
2018-07-17 09:30:00,0.00,0.05,0.00,24.76,28.72,31.73,13.87,47.17,1020.82,2020.97,3405.99,3068.01,3528.84,599.91,594.83,7.47,0000 0000 0000 0000 000000
2018-07-17 09:35:01,0.00,0.05,0.00,24.74,28.70,31.69,13.96,47.27,1020.89,2020.98,3405.99,3068.01,3528.89,599.97,595.02,7.52,0000 0000 0000 0000 000000
2018-07-17 09:40:02,0.00,0.05,0.00,24.72,28.69,31.67,13.99,47.35,1020.97,2020.99,3405.99,3068.01,3528.91,599.96,595.10,7.57,0000 0000 0000 0000 000000
2018-07-17 09:45:03,-0.00,0.05,0.00,24.72,28.67,31.67,14.05,47.39,1021.01,2020.99,3405.99,3068.08,3528.96,600.19,595.32,7.62,0000 0000 0000 0000 000000
2018-07-17 09:50:04,0.00,0.05,0.00,24.71,28.66,31.64,13.99,47.26,1021.01,2020.99,3405.99,3068.03,3528.94,600.07,595.27,7.67,0000 0000 0000 0000 000000
2018-07-17 09:55:05,0.00,0.05,0.00,24.70,28.65,31.64,13.97,47.24,1021.01,2020.99,3405.99,3068.08,3528.95,600.36,595.51,7.72,0000 0000 0000 0000 000000
2018-07-17 10:00:06,-0.00,0.05,0.00,24.69,28.63,31.63,14.00,47.30,1021.01,2021.00,3405.98,3068.25,3528.95,600.47,595.61,7.77,0000 0000 0000 0000 000000
2018-07-17 10:05:08,-0.01,0.05,0.00,24.67,28.62,31.62,13.91,47.09,1021.01,2021.03,3405.99,3068.58,3528.96,600.15,595.39,7.82,0000 0000 0000 0000 000000
2018-07-17 10:10:09,0.00,0.05,0.00,24.68,28.61,31.62,13.93,47.15,1021.01,2021.02,3405.99,3068.71,3528.95,599.89,595.15,7.87,0000 0000 0000 0000 000000
2018-07-17 10:15:10,0.00,0.05,0.00,24.67,28.60,31.60,13.96,47.21,1021.01,2021.03,3405.99,3068.88,3528.93,599.93,595.27,7.92,0000 0000 0000 0000 000000
2018-07-17 10:20:11,0.00,0.05,0.00,24.66,28.58,31.59,13.93,47.32,1021.01,2021.08,3406.00,3068.97,3528.96,599.95,595.37,7.97,0000 0000 0000 0000 000000
2018-07-17 10:25:13,0.02,0.05,0.00,24.65,28.57,31.56,13.95,47.29,1021.01,2021.27,3406.00,3068.99,3528.99,600.12,595.49,8.02,0000 0000 0000 0000 000000
2018-07-17 10:30:14,0.00,0.05,0.00,24.67,28.56,31.55,13.97,47.31,1021.01,2021.38,3406.00,3068.99,3528.99,599.98,595.32,8.07,0000 0000 0000 0000 000000
2018-07-17 10:35:15,0.03,0.05,0.00,24.64,28.55,31.55,13.98,47.23,1021.02,2021.62,3406.00,3068.99,3528.98,599.86,595.20,8.12,0000 0000 0000 0000 000000
2018-07-17 10:40:16,0.01,0.05,0.00,24.64,28.54,31.51,13.95,47.30,1021.01,2021.85,3406.00,3068.99,3528.99,599.94,595.18,8.17,0000 0000 0000 0000 000000
2018-07-17 10:45:17,-0.00,0.05,0.00,24.65,28.52,31.46,13.93,47.02,1021.02,2021.83,3406.00,3068.99,3528.99,600.29,595.54,8.22,0000 0000 0000 0000 000000
2018-07-17 10:50:19,0.01,0.05,0.00,24.67,28.52,31.33,13.89,46.95,1021.02,2021.93,3406.00,3068.99,3528.98,600.10,595.17,8.27,0000 0000 0000 0000 000000
2018-07-17 10:55:20,0.00,0.05,0.00,24.72,28.52,31.07,13.85,46.88,1021.02,2021.95,3406.00,3068.99,3528.99,599.58,594.79,8.32,0000 0000 0000 0000 000000
2018-07-17 11:00:21,0.00,0.05,0.00,24.79,28.52,30.98,13.93,47.11,1021.03,2021.96,3406.00,3069.00,3528.99,600.24,595.27,8.37,0000 0000 0000 0000 000000
2018-07-17 11:05:22,0.00,0.05,0.00,24.90,28.52,30.98,13.85,46.95,1021.02,2021.98,3406.00,3069.01,3528.98,599.97,594.92,8.42,0000 0000 0000 0000 000000
2018-07-17 11:10:23,0.00,0.05,0.00,25.01,28.52,31.02,13.82,46.93,1021.05,2021.97,3406.00,3069.00,3528.92,599.86,594.46,8.47,0000 0000 0000 0000 000000
2018-07-17 11:15:25,0.00,0.05,0.00,25.07,28.52,31.05,13.86,46.94,1021.08,2021.97,3405.99,3069.00,3528.81,599.95,594.52,8.52,0000 0000 0000 0000 000000
2018-07-17 11:20:26,0.00,0.05,0.00,25.10,28.54,31.10,13.80,46.80,1021.16,2021.97,3405.93,3069.00,3528.21,599.65,594.14,8.57,0000 0000 0000 0000 000000
2018-07-17 11:25:28,0.00,0.05,0.00,25.10,28.55,31.14,13.85,46.88,1021.16,2021.95,3405.80,3069.00,3528.03,599.87,594.45,8.62,0000 0000 0000 0000 000000
2018-07-17 11:30:29,0.00,0.05,0.00,25.07,28.55,31.23,13.83,46.98,1021.26,2021.96,3405.88,3068.99,3528.02,599.99,594.55,8.67,0000 0000 0000 0000 000000
2018-07-17 11:35:30,0.01,0.06,0.00,25.03,28.57,31.24,13.90,47.16,1021.34,2021.97,3405.36,3068.99,3528.01,600.03,594.79,8.73,0000 0000 0000 0000 000000
2018-07-17 11:40:32,0.00,0.06,0.00,24.97,28.57,31.30,13.98,47.02,1021.28,2021.96,3405.08,3068.99,3528.00,600.62,595.37,8.78,0000 0000 0000 0000 000000
2018-07-17 11:45:33,0.00,0.06,0.00,24.91,28.57,31.44,13.94,46.86,1021.31,2021.98,3405.01,3068.98,3528.00,600.44,595.29,8.83,0000 0000 0000 0000 000000
2018-07-17 11:50:34,0.00,0.06,0.00,24.87,28.57,31.58,13.87,46.87,1021.40,2021.98,3404.99,3068.97,3528.00,599.97,594.79,8.88,0000 0000 0000 0000 000000
2018-07-17 11:55:36,0.00,0.06,0.00,24.81,28.57,31.64,13.92,46.83,1021.40,2021.99,3404.99,3068.95,3528.00,600.39,595.58,8.93,0000 0000 0000 0000 000000
2018-07-17 12:00:37,-0.00,0.06,0.00,24.77,28.57,31.63,13.99,47.10,1021.40,2021.96,3404.99,3068.95,3527.98,599.83,595.12,8.98,0000 0000 0000 0000 000000
2018-07-17 12:05:38,0.01,0.06,0.00,24.74,28.57,31.63,13.98,47.17,1021.41,2021.98,3404.87,3068.92,3527.94,600.41,595.71,9.03,0000 0000 0000 0000 000000
2018-07-17 12:10:39,0.01,0.06,0.00,24.71,28.55,31.63,14.00,47.17,1021.41,2021.99,3404.53,3068.87,3527.87,600.47,595.75,9.08,0000 0000 0000 0000 000000
2018-07-17 12:15:41,-0.00,0.06,0.00,24.67,28.55,31.62,13.94,47.23,1021.39,2021.98,3404.51,3068.93,3527.81,599.79,595.30,9.13,0000 0000 0000 0000 000000
2018-07-17 12:20:42,0.00,0.06,0.00,24.64,28.54,31.57,13.94,47.24,1021.49,2021.99,3404.29,3068.93,3527.74,599.68,595.10,9.18,0000 0000 0000 0000 000000
2018-07-17 12:25:43,0.01,0.06,0.00,24.62,28.52,31.56,13.99,47.26,1021.50,2021.99,3404.18,3068.97,3527.58,600.17,595.93,9.23,0000 0000 0000 0000 000000
2018-07-17 12:30:44,0.00,0.06,0.00,24.61,28.52,31.57,13.98,47.19,1021.50,2021.99,3404.03,3068.97,3527.34,600.28,595.76,9.28,0000 0000 0000 0000 000000
2018-07-17 12:35:46,0.00,0.06,0.00,24.60,28.50,31.58,14.04,47.20,1021.50,2021.99,3404.01,3068.96,3527.32,600.16,595.85,9.33,0000 0000 0000 0000 000000
2018-07-17 12:40:47,-0.01,0.06,0.00,24.58,28.50,31.54,13.90,47.00,1021.50,2021.99,3404.02,3068.97,3527.43,599.94,595.70,9.38,0000 0000 0000 0000 000000
2018-07-17 12:45:48,0.00,0.06,0.00,24.56,28.48,31.51,13.90,47.05,1021.50,2022.00,3404.03,3068.99,3527.51,599.90,595.63,9.43,0000 0000 0000 0000 000000
2018-07-17 12:50:49,0.00,0.06,0.00,24.57,28.47,31.49,13.96,47.02,1021.50,2022.00,3404.04,3068.99,3527.32,599.71,595.43,9.48,0000 0000 0000 0000 000000
2018-07-17 12:55:51,0.00,0.06,0.00,24.57,28.46,31.46,13.89,47.17,1021.50,2022.01,3404.04,3068.99,3527.49,600.08,595.81,9.53,0000 0000 0000 0000 000000
2018-07-17 13:00:52,-0.00,0.06,0.00,24.57,28.45,31.44,14.01,47.30,1021.50,2022.01,3404.03,3068.99,3527.51,599.98,595.72,9.58,0000 0000 0000 0000 000000